Hourly Data Report for September 10, 2017

All times are specified in Local Standard Time (LST). Add 1 hour to adjust for Daylight Saving Time where and when it is observed.

BAKER LAKE A
NUNAVUT

64°17'56.000" N
96°04'40.000" W
18.60 m
2300503
71926
YBK

Download Data

Hourly Data (September 2017)
Hourly Data Report for September 10, 2017
Temp Definition
°C
Dew Point Temp Definition
°C
Rel Hum Definition
%
Wind Dir Definition
10's deg

Wind Spd Definition
km/h
Visibility Definition
km
Stn Press Definition
kPa
Hmdx Definition


Wind Chill Definition


Weather Definition


TIME
00:00 Legend Double Dagger -1.2 -3.0 88 34 12 24.1 101.89   -5 Clear
01:00 Legend Double Dagger -2.4 -4.3 86 35 8 24.1 101.95   -6 LegendNANA
02:00 Legend Double Dagger -3.0 -4.9 86 34 9 24.1 101.95   -7 LegendNANA
03:00 Legend Double Dagger -2.2 -4.1 87 33 8 24.1 101.92   -5 Clear
04:00 Legend Double Dagger -2.0 -4.1 86 34 8 24.1 101.91   -5 LegendNANA
05:00 Legend Double Dagger -1.1 -3.2 85 3 7 40.2 101.88   -4 LegendNANA
06:00 Legend Double Dagger 1.4 -0.7 85 8 19 40.2 101.85     Mostly Cloudy
07:00 Legend Double Dagger 2.5 -0.4 81 16 23 40.2 101.85     LegendNANA
08:00 Legend Double Dagger 3.2 -2.1 68 13 20 32.2 101.81     LegendNANA
09:00 Legend Double Dagger 4.3 -1.8 64 13 18 32.2 101.77     Mainly Clear
10:00 Legend Double Dagger 4.8 -1.0 66 12 21 32.2 101.72     LegendNANA
11:00 Legend Double Dagger 4.8 -1.4 64 11 18 32.2 101.62     LegendNANA
12:00 Legend Double Dagger 4.8 -1.4 64 11 23 32.2 101.53     Cloudy
13:00 Legend Double Dagger 5.6 -0.3 66 10 19 32.2 101.44     LegendNANA
14:00 Legend Double Dagger 5.5 -0.4 66 9 26 32.2 101.34     LegendNANA
15:00 Legend Double Dagger 5.9 -0.7 63 10 25 32.2 101.26     Mostly Cloudy
16:00 Legend Double Dagger 6.3 -1.6 57 10 25 32.2 101.14     LegendNANA
17:00 Legend Double Dagger 6.0 -1.2 60 10 30 32.2 101.05     LegendNANA
18:00 Legend Double Dagger 6.0 -0.8 62 8 30 32.2 100.96     Cloudy
19:00 Legend Double Dagger 5.7 0.0 66 8 30 32.2 100.89     LegendNANA
20:00 Legend Double Dagger 5.2 -0.2 68 8 34 24.1 100.80     LegendNANA
21:00 Legend Double Dagger 4.8 -0.8 67 8 34 24.1 100.70     Cloudy
22:00 Legend Double Dagger 4.7 0.0 72 8 33 24.1 100.60     LegendNANA
23:00 Legend Double Dagger 4.4 0.4 75 7 33 24.1 100.48     LegendNANA

Notes on Data Quality.

Legend

  • E = Estimated
  • M = Missing
  • NA = Not Available
  • ‡ = Partner data that is not subject to review by the National Climate Archives
Date modified: